TimeEST,TemperatureF,Dew PointF,Humidity,Sea Level PressureIn,VisibilityMPH,Wind Direction,Wind SpeedMPH,Gust SpeedMPH,PrecipitationIn,Events,Conditions,WindDirDegrees,DateUTC
12:15 AM,60.8,60.8,100,30.03,10.0,South,5.8,-,N/A,,Mostly Cloudy,170,2012-12-10 05:15:00
12:18 AM,60.8,60.8,100,30.03,10.0,South,5.8,-,N/A,,Scattered Clouds,170,2012-12-10 05:18:00
12:35 AM,60.8,60.8,100,30.02,10.0,SSE,4.6,-,N/A,,Scattered Clouds,160,2012-12-10 05:35:00
12:55 AM,60.8,60.8,100,30.01,7.0,South,6.9,-,N/A,,Mostly Cloudy,170,2012-12-10 05:55:00
1:15 AM,60.8,60.8,100,30.01,7.0,South,5.8,-,N/A,,Overcast,170,2012-12-10 06:15:00
1:55 AM,60.8,60.8,100,29.99,7.0,South,5.8,-,N/A,,Overcast,170,2012-12-10 06:55:00
2:18 AM,60.8,60.8,100,29.99,7.0,South,4.6,-,N/A,,Overcast,180,2012-12-10 07:18:00
2:57 AM,60.8,60.8,100,29.97,7.0,South,5.8,-,N/A,,Overcast,170,2012-12-10 07:57:00
3:56 AM,60.8,60.8,100,29.94,5.0,South,4.6,-,N/A,,Overcast,190,2012-12-10 08:56:00
4:17 AM,60.8,60.8,100,29.93,4.0,South,5.8,-,N/A,,Overcast,180,2012-12-10 09:17:00
4:38 AM,60.8,60.8,100,29.93,3.0,South,5.8,-,N/A,,Overcast,180,2012-12-10 09:38:00
4:59 AM,60.8,60.8,100,29.92,2.5,South,4.6,-,N/A,,Overcast,180,2012-12-10 09:59:00
5:15 AM,60.8,60.8,100,29.92,2.0,South,5.8,-,N/A,,Overcast,180,2012-12-10 10:15:00
5:19 AM,60.8,60.8,100,29.92,2.0,South,5.8,-,N/A,,Overcast,180,2012-12-10 10:19:00
5:35 AM,60.8,60.8,100,29.92,1.8,South,6.9,-,N/A,,Overcast,190,2012-12-10 10:35:00
5:55 AM,60.8,60.8,100,29.91,2.5,South,5.8,-,N/A,,Overcast,180,2012-12-10 10:55:00
6:15 AM,60.8,60.8,100,29.91,1.8,South,6.9,-,N/A,,Overcast,170,2012-12-10 11:15:00
6:35 AM,62.6,62.6,100,29.90,1.2,South,5.8,-,N/A,,Overcast,170,2012-12-10 11:35:00
6:55 AM,62.6,62.6,100,29.91,1.0,South,5.8,-,N/A,,Overcast,190,2012-12-10 11:55:00
7:15 AM,62.6,62.6,100,29.90,1.2,South,5.8,-,N/A,,Overcast,180,2012-12-10 12:15:00
7:35 AM,62.6,62.6,100,29.89,1.8,South,4.6,-,N/A,,Overcast,190,2012-12-10 12:35:00
7:55 AM,62.6,62.6,100,29.88,2.0,South,5.8,-,N/A,,Overcast,170,2012-12-10 12:55:00
8:15 AM,62.6,62.6,100,29.88,1.5,South,6.9,-,N/A,,Overcast,170,2012-12-10 13:15:00
8:35 AM,62.6,62.6,100,29.88,1.8,South,6.9,-,N/A,,Overcast,170,2012-12-10 13:35:00
8:55 AM,62.6,62.6,100,29.88,1.8,South,8.1,-,N/A,,Overcast,180,2012-12-10 13:55:00
9:15 AM,62.6,62.6,100,29.87,2.0,South,8.1,-,N/A,,Overcast,190,2012-12-10 14:15:00
9:35 AM,62.6,62.6,100,29.88,1.5,SSW,6.9,-,N/A,,Overcast,200,2012-12-10 14:35:00
9:55 AM,62.6,62.6,100,29.87,3.0,South,9.2,-,N/A,,Overcast,190,2012-12-10 14:55:00
10:15 AM,64.4,64.4,100,29.86,5.0,SSW,6.9,-,N/A,,Overcast,200,2012-12-10 15:15:00
10:35 AM,64.4,64.4,100,29.85,7.0,SSW,11.5,-,N/A,,Overcast,200,2012-12-10 15:35:00
10:55 AM,64.4,64.4,100,29.84,10.0,SSW,9.2,-,N/A,,Overcast,200,2012-12-10 15:55:00
11:15 AM,66.2,66.2,100,29.82,10.0,South,11.5,-,N/A,,Scattered Clouds,180,2012-12-10 16:15:00
11:35 AM,68.0,66.2,94,29.81,10.0,South,12.7,18.4,N/A,,Mostly Cloudy,190,2012-12-10 16:35:00
11:55 AM,68.0,64.4,88,29.80,10.0,SSW,13.8,25.3,N/A,,Mostly Cloudy,210,2012-12-10 16:55:00
12:15 PM,69.8,64.4,83,29.79,10.0,SW,18.4,25.3,N/A,,Scattered Clouds,220,2012-12-10 17:15:00
12:35 PM,69.8,62.6,78,29.79,10.0,SSW,16.1,29.9,N/A,,Scattered Clouds,210,2012-12-10 17:35:00
12:55 PM,69.8,60.8,73,29.77,10.0,SW,18.4,32.2,N/A,,Scattered Clouds,230,2012-12-10 17:55:00
1:15 PM,69.8,60.8,73,29.76,10.0,SSW,19.6,27.6,N/A,,Clear,210,2012-12-10 18:15:00
1:35 PM,69.8,60.8,73,29.76,10.0,SSW,12.7,21.9,N/A,,Scattered Clouds,210,2012-12-10 18:35:00
1:55 PM,68.0,59.0,73,29.75,10.0,SSW,12.7,-,N/A,,Mostly Cloudy,210,2012-12-10 18:55:00
2:15 PM,71.6,60.8,69,29.74,10.0,SW,9.2,-,N/A,,Mostly Cloudy,220,2012-12-10 19:15:00
2:35 PM,69.8,60.8,73,29.74,10.0,SW,13.8,23.0,N/A,,Mostly Cloudy,220,2012-12-10 19:35:00
2:55 PM,68.0,59.0,73,29.73,10.0,SSW,11.5,19.6,N/A,,Overcast,210,2012-12-10 19:55:00
3:15 PM,69.8,59.0,68,29.74,10.0,SSW,11.5,17.3,N/A,,Overcast,210,2012-12-10 20:15:00
3:35 PM,68.0,59.0,73,29.74,10.0,SSW,10.4,20.7,N/A,,Overcast,200,2012-12-10 20:35:00
3:55 PM,68.0,59.0,73,29.75,10.0,SW,12.7,20.7,N/A,,Overcast,220,2012-12-10 20:55:00
4:15 PM,66.2,59.0,78,29.75,10.0,SW,13.8,19.6,N/A,,Overcast,220,2012-12-10 21:15:00
4:35 PM,66.2,57.2,73,29.74,10.0,SSW,11.5,-,N/A,,Mostly Cloudy,200,2012-12-10 21:35:00
4:55 PM,66.2,57.2,73,29.74,10.0,SSW,9.2,-,N/A,,Scattered Clouds,200,2012-12-10 21:55:00
5:15 PM,64.4,57.2,77,29.74,10.0,SSW,9.2,-,N/A,,Scattered Clouds,200,2012-12-10 22:15:00
5:35 PM,64.4,57.2,77,29.75,10.0,SSW,8.1,-,N/A,,Mostly Cloudy,200,2012-12-10 22:35:00
5:55 PM,64.4,57.2,77,29.75,10.0,SSW,8.1,-,N/A,,Mostly Cloudy,200,2012-12-10 22:55:00
6:15 PM,64.4,57.2,77,29.75,10.0,SSW,6.9,-,N/A,,Mostly Cloudy,200,2012-12-10 23:15:00
6:35 PM,62.6,57.2,82,29.75,10.0,SSW,5.8,-,N/A,,Mostly Cloudy,200,2012-12-10 23:35:00
6:55 PM,62.6,57.2,82,29.75,10.0,South,5.8,-,N/A,,Mostly Cloudy,180,2012-12-10 23:55:00
7:15 PM,62.6,57.2,82,29.75,10.0,South,8.1,-,N/A,,Overcast,190,2012-12-11 00:15:00
7:35 PM,62.6,57.2,82,29.75,10.0,South,10.4,-,N/A,,Overcast,190,2012-12-11 00:35:00
7:55 PM,62.6,57.2,82,29.74,10.0,South,11.5,-,N/A,,Mostly Cloudy,190,2012-12-11 00:55:00
8:15 PM,62.6,57.2,82,29.73,10.0,South,15.0,-,N/A,,Scattered Clouds,180,2012-12-11 01:15:00
8:35 PM,62.6,57.2,82,29.72,10.0,South,10.4,18.4,N/A,,Scattered Clouds,180,2012-12-11 01:35:00
8:55 PM,62.6,57.2,82,29.72,10.0,South,9.2,-,N/A,,Clear,190,2012-12-11 01:55:00
9:15 PM,62.6,57.2,82,29.71,10.0,SSW,11.5,-,N/A,,Clear,200,2012-12-11 02:15:00
9:35 PM,62.6,57.2,82,29.71,10.0,South,9.2,-,N/A,,Scattered Clouds,190,2012-12-11 02:35:00
9:55 PM,62.6,57.2,82,29.71,10.0,SSW,9.2,-,N/A,,Scattered Clouds,200,2012-12-11 02:55:00
10:15 PM,60.8,57.2,88,29.71,10.0,South,10.4,-,N/A,,Clear,190,2012-12-11 03:15:00
10:35 PM,60.8,57.2,88,29.71,10.0,SSW,9.2,-,N/A,,Clear,200,2012-12-11 03:35:00
10:55 PM,62.6,57.2,82,29.71,10.0,South,9.2,-,N/A,,Clear,190,2012-12-11 03:55:00
11:15 PM,62.6,57.2,82,29.72,10.0,South,11.5,-,N/A,,Scattered Clouds,190,2012-12-11 04:15:00
11:35 PM,62.6,57.2,82,29.73,10.0,South,11.5,-,N/A,,Clear,190,2012-12-11 04:35:00
11:55 PM,62.6,57.2,82,29.73,10.0,South,10.4,-,N/A,,Scattered Clouds,190,2012-12-11 04:55:00